Radiation Dose measured at exhaust stack monitor of Fukushima Daiichi Nuclear Power Station
Date,Time,Unit 5 6 shared exhaust cylinders,Wind Direction,Wind Velocity(m/s)
2023/07/23,00:00,3.7,south,4.3
2023/07/23,00:10,3.6,south-southwest,4.1
2023/07/23,00:20,3.6,south-southwest,3.2
2023/07/23,00:30,3.6,south-southwest,2.9
2023/07/23,00:40,3.5,south-southwest,2.6
2023/07/23,00:50,3.6,south-southwest,2.3
2023/07/23,01:00,3.6,south,2.0
2023/07/23,01:10,3.5,south-southwest,2.0
2023/07/23,01:20,3.5,south,1.9
2023/07/23,01:30,3.8,south-southeast,1.5
2023/07/23,01:40,3.6,south-southeast,1.7
2023/07/23,01:50,3.7,south,2.5
2023/07/23,02:00,3.6,south,3.4
2023/07/23,02:10,3.6,south,4.2
2023/07/23,02:20,3.7,south-southeast,4.5
2023/07/23,02:30,3.6,south-southeast,4.0
2023/07/23,02:40,3.5,south,3.6
2023/07/23,02:50,3.7,south,4.3
2023/07/23,03:00,3.7,south,4.9
2023/07/23,03:10,3.5,south,4.9
2023/07/23,03:20,3.6,south,5.0
2023/07/23,03:30,3.6,south-southeast,5.1
2023/07/23,03:40,3.7,south-southeast,5.2
2023/07/23,03:50,3.6,south-southeast,4.8
2023/07/23,04:00,3.7,south-southeast,3.7
2023/07/23,04:10,3.5,south,3.9
2023/07/23,04:20,3.6,south-southeast,4.4
2023/07/23,04:30,3.6,south-southeast,4.9
2023/07/23,04:40,3.6,south,4.1
2023/07/23,04:50,3.6,south,5.3
2023/07/23,05:00,3.8,south-southeast,5.5
2023/07/23,05:10,3.6,south-southeast,5.4
2023/07/23,05:20,3.6,south-southeast,5.2
2023/07/23,05:30,3.7,south-southeast,4.4
2023/07/23,05:40,3.6,south-southeast,4.0
2023/07/23,05:50,3.6,south-southeast,4.6
2023/07/23,06:00,3.6,south-southeast,5.2
2023/07/23,06:10,3.7,south,3.8
2023/07/23,06:20,3.8,south-southeast,5.1
2023/07/23,06:30,3.6,south-southeast,6.4
2023/07/23,06:40,3.7,south-southeast,6.9
2023/07/23,06:50,3.7,south-southeast,6.8
2023/07/23,07:00,3.7,south-southeast,6.7
2023/07/23,07:10,3.6,south-southeast,7.7
2023/07/23,07:20,3.7,south-southeast,6.6
2023/07/23,07:30,3.5,south-southeast,6.3
2023/07/23,07:40,3.7,south-southeast,6.1
2023/07/23,07:50,3.7,south-southeast,6.6
2023/07/23,08:00,3.5,south-southeast,6.1
2023/07/23,08:10,3.6,south-southeast,6.9
2023/07/23,08:20,3.6,south-southeast,6.8
2023/07/23,08:30,3.5,south-southeast,6.2
2023/07/23,08:40,3.5,south-southeast,6.6
2023/07/23,08:50,3.7,south-southeast,6.6
2023/07/23,09:00,3.7,south-southeast,7.0
2023/07/23,09:10,3.5,south-southeast,6.2
2023/07/23,09:20,3.6,south-southeast,6.9
2023/07/23,09:30,3.7,south-southeast,7.1
2023/07/23,09:40,3.6,south-southeast,7.0
2023/07/23,09:50,3.7,south-southeast,7.6
2023/07/23,10:00,3.5,south-southeast,8.1
2023/07/23,10:10,3.6,south-southeast,7.4
2023/07/23,10:20,3.5,south-southeast,8.5
2023/07/23,10:30,3.5,south-southeast,7.7
2023/07/23,10:40,3.7,south-southeast,8.1
2023/07/23,10:50,3.5,south-southeast,8.5
2023/07/23,11:00,3.6,south-southeast,8.0
2023/07/23,11:10,3.6,south-southeast,8.4
2023/07/23,11:20,3.6,south-southeast,7.5
2023/07/23,11:30,3.7,south-southeast,8.0
2023/07/23,11:40,3.7,south-southeast,8.9
2023/07/23,11:50,3.6,south-southeast,8.5
2023/07/23,12:00,3.5,south-southeast,7.1
2023/07/23,12:10,3.6,south-southeast,7.9
2023/07/23,12:20,3.7,south-southeast,8.0
2023/07/23,12:30,3.7,south-southeast,7.3
2023/07/23,12:40,3.7,south-southeast,8.6
2023/07/23,12:50,3.5,south-southeast,9.1
2023/07/23,13:00,3.7,south-southeast,8.5
2023/07/23,13:10,3.8,south-southeast,8.0
2023/07/23,13:20,3.7,south-southeast,7.3
2023/07/23,13:30,3.5,south-southeast,8.4
2023/07/23,13:40,3.7,south-southeast,7.3
2023/07/23,13:50,3.6,south-southeast,8.4
2023/07/23,14:00,3.5,south-southeast,8.6
2023/07/23,14:10,3.5,south-southeast,7.2
2023/07/23,14:20,3.7,south-southeast,8.2
2023/07/23,14:30,3.7,south-southeast,10.2
2023/07/23,14:40,3.6,south-southeast,8.0
2023/07/23,14:50,3.6,south-southeast,8.2
2023/07/23,15:00,3.6,south-southeast,8.6
2023/07/23,15:10,3.7,south-southeast,6.9
2023/07/23,15:20,3.6,south-southeast,9.6
2023/07/23,15:30,3.6,south-southeast,8.6
2023/07/23,15:40,3.9,south-southeast,7.6
2023/07/23,15:50,3.8,south-southeast,9.3
2023/07/23,16:00,3.5,south-southeast,8.2
2023/07/23,16:10,3.4,south-southeast,8.0
2023/07/23,16:20,3.6,south-southeast,8.0
2023/07/23,16:30,3.6,south-southeast,8.0
2023/07/23,16:40,3.5,south-southeast,8.2
2023/07/23,16:50,3.5,south-southeast,6.8
2023/07/23,17:00,3.5,south-southeast,6.4
2023/07/23,17:10,3.6,south-southeast,6.5
2023/07/23,17:20,3.7,south-southeast,6.6
2023/07/23,17:30,3.6,south-southeast,6.5
2023/07/23,17:40,3.7,south-southeast,7.0
2023/07/23,17:50,3.6,south-southeast,6.4
2023/07/23,18:00,3.7,south-southeast,6.4
2023/07/23,18:10,3.7,south-southeast,7.2
2023/07/23,18:20,3.7,south,6.1
2023/07/23,18:30,3.6,south-southeast,6.4
2023/07/23,18:40,3.5,south-southeast,7.0
2023/07/23,18:50,3.6,south-southeast,6.4
2023/07/23,19:00,3.6,south,7.1
2023/07/23,19:10,3.6,south-southeast,8.8
2023/07/23,19:20,3.6,south,7.0
2023/07/23,19:30,3.6,south-southeast,7.9
2023/07/23,19:40,3.6,south-southeast,7.8
2023/07/23,19:50,3.6,south,5.9
2023/07/23,20:00,3.5,south,5.2
2023/07/23,20:10,3.7,south,4.9
2023/07/23,20:20,3.6,south,4.5
2023/07/23,20:30,3.7,south-southeast,5.0
2023/07/23,20:40,3.7,south-southeast,5.4
2023/07/23,20:50,3.6,south-southeast,4.8
2023/07/23,21:00,3.6,south,4.9
2023/07/23,21:10,3.6,south,5.8
2023/07/23,21:20,3.6,south,4.0
2023/07/23,21:30,3.6,south,3.4
2023/07/23,21:40,3.6,south,3.7
2023/07/23,21:50,3.5,south,3.9
2023/07/23,22:00,3.5,south-southeast,4.6
2023/07/23,22:10,3.6,south-southeast,3.6
2023/07/23,22:20,3.6,south,4.3
2023/07/23,22:30,3.6,south,4.9
2023/07/23,22:40,3.7,south,3.9
2023/07/23,22:50,3.8,south,4.1
2023/07/23,23:00,3.4,south,5.0
2023/07/23,23:10,3.7,south,5.9
2023/07/23,23:20,3.5,south,5.8
2023/07/23,23:30,3.8,south,5.6
2023/07/23,23:40,3.5,south,5.3
2023/07/23,23:50,3.7,south,5.1
